Location: Monroe
(41.9160°N, 83.3980°W)
Time: 19:46:40
(UTC-04:00)

ISS - All Passes

Search period start: 18 September 2014 00:00
Search period end: 28 September 2014 00:00
Orbit: 414 x 417 km, 51.6° (Epoch: 18 September)

Date Brightness Start Highest point End Pass type
(mag) Time Alt. Az. Time Alt. Az. Time Alt. Az.
18 Sep - 03:15:54 10° S 03:18:03 16° SE 03:20:12 10° E night (unlit)
18 Sep - 04:51:09 10° WSW 04:54:27 62° NNW 04:57:45 10° NE visible
18 Sep - 06:29:14 10° WNW 06:31:40 19° NNW 06:34:07 10° NE visible
18 Sep - 08:07:07 10° NW 08:09:20 16° N 08:11:32 10° NE daylight
18 Sep - 09:43:33 10° NW 09:46:43 39° NNE 09:49:53 10° E daylight
18 Sep - 11:20:28 10° WNW 11:23:20 27° SW 11:26:13 10° SSE daylight
19 Sep - 04:02:21 10° SW 04:05:40 79° SE 04:09:00 10° ENE visible
19 Sep - 05:39:58 10° WNW 05:42:41 23° NNW 05:45:24 10° NE visible
19 Sep - 07:18:13 10° NW 07:20:18 15° N 07:22:22 10° NE daylight
19 Sep - 08:54:53 10° NW 08:57:49 28° NNE 09:00:45 10° E daylight
19 Sep - 10:31:26 10° WNW 10:34:40 48° SW 10:37:52 10° SE daylight
20 Sep - 03:13:44 10° SSW 03:16:54 43° SE 03:20:06 10° ENE visible
20 Sep - 04:50:44 10° W 04:53:43 29° NNW 04:56:42 10° NE visible
20 Sep - 06:29:07 10° NW 06:31:13 15° N 06:33:19 10° NE visible
20 Sep - 08:06:10 10° NW 08:08:50 22° NNE 08:11:30 10° ENE daylight
20 Sep - 09:42:33 10° NW 09:45:53 86° SW 09:49:13 10° SE daylight
20 Sep - 11:21:55 10° SW 11:22:05 10° SW 11:22:15 10° SW daylight
21 Sep - 02:25:24 10° SSW 02:28:11 25° SE 02:30:58 10° ENE night (unlit)
21 Sep - 04:01:34 10° WSW 04:04:45 42° NNW 04:07:57 10° NE visible
21 Sep - 05:39:52 10° NW 05:42:07 17° N 05:44:22 10° NE visible
21 Sep - 07:17:22 10° NW 07:19:46 18° NNE 07:22:10 10° ENE daylight
21 Sep - 08:53:44 10° NW 08:57:01 56° NNE 09:00:18 10° ESE daylight
21 Sep - 10:31:07 10° W 10:33:27 18° SW 10:35:46 10° S daylight
22 Sep - 01:37:34 10° SSE 01:39:29 15° SE 01:41:24 10° E night (unlit)
22 Sep - 03:12:30 10° WSW 03:15:49 68° NNW 03:19:09 10° NE night (unlit)
22 Sep - 04:50:30 10° WNW 04:53:00 19° NNW 04:55:30 10° NE visible
22 Sep - 06:28:28 10° NW 06:30:38 16° N 06:32:49 10° NE visible
22 Sep - 08:04:56 10° NW 08:08:03 36° NNE 08:11:10 10° E daylight
22 Sep - 09:41:44 10° WNW 09:44:43 30° SW 09:47:40 10° SSE daylight
23 Sep - 02:23:36 10° SW 02:26:55 70° SE 02:30:14 10° ENE night (unlit)
23 Sep - 04:01:07 10° WNW 04:03:53 24° NNW 04:06:39 10° NE visible
23 Sep - 05:39:23 10° NW 05:41:28 15° N 05:43:32 10° NE visible
23 Sep - 07:16:07 10° NW 07:19:00 26° NNE 07:21:53 10° E daylight
23 Sep - 08:52:37 10° WNW 08:55:53 54° SW 08:59:08 10° SE daylight
24 Sep - 01:34:55 10° SSW 01:38:02 38° SE 01:41:10 10° ENE night (unlit)
24 Sep - 03:11:45 10° W 03:14:46 32° NNW 03:17:49 10° NE night (unlit)
24 Sep - 04:50:08 10° NW 04:52:15 16° N 04:54:22 10° NE visible
24 Sep - 06:27:15 10° NW 06:29:52 21° NNE 06:32:28 10° ENE visible
24 Sep - 08:03:37 10° NW 08:06:57 85° NE 08:10:16 10° SE daylight
24 Sep - 09:42:02 10° WSW 09:43:11 11° SW 09:44:20 10° SSW daylight
25 Sep - 00:46:31 10° S 00:49:10 22° SE 00:51:50 10° E night (unlit)
25 Sep - 02:22:28 10° WSW 02:25:41 46° NNW 02:28:56 10° NE night (unlit)
25 Sep - 04:00:42 10° NW 04:03:00 17° N 04:05:18 10° NE visible
25 Sep - 05:38:18 10° NW 05:40:39 18° N 05:42:59 10° NE visible
25 Sep - 07:14:40 10° NW 07:17:56 51° NNE 07:21:11 10° ESE daylight
25 Sep - 08:51:53 10° W 08:54:24 20° SW 08:56:54 10° S daylight
25 Sep - 23:58:46 10° SSE 00:00:21 13° SE 00:01:55 10° ESE night (unlit)
26 Sep - 01:33:18 10° WSW 01:36:37 77° NW 01:39:58 10° NE night (unlit)
26 Sep - 03:11:12 10° WNW 03:13:45 20° NNW 03:16:18 10° NE night (unlit)
26 Sep - 04:49:14 10° NW 04:51:22 16° N 04:53:31 10° NE visible
26 Sep - 06:25:44 10° NW 06:28:49 34° NNE 06:31:53 10° E visible
26 Sep - 08:02:27 10° WNW 08:05:30 34° SW 08:08:33 10° SSE daylight
27 Sep - 00:44:18 10° SW 00:47:35 61° SE 00:50:53 10° ENE night (unlit)
27 Sep - 02:21:40 10° WNW 02:24:30 25° NNW 02:27:20 10° NE night (unlit)
27 Sep - 03:59:59 10° NW 04:02:03 15° N 04:04:07 10° NE visible
27 Sep - 05:36:47 10° NW 05:39:36 25° NNE 05:42:25 10° ENE visible
27 Sep - 07:13:14 10° WNW 07:16:31 62° SW 07:19:48 10° SE daylight
27 Sep - 23:55:32 10° SSW 23:58:35 34° SE 00:00:00 23° E night (unlit)
